Location: Carrer del Canonge
(41.4901°N, 2.2931°E)
Time: 04:50:15
(UTC+00:00)

Okean 2 Rocket - Pass Details

Date: 18 September 2020
Orbit: 616 x 642 km, 82.5° (Epoch: 25 October)

Event Time Altitude Azimuth Distance (km) Brightness Sun altitude
Rises 19:38:44 0° 195° (SSW) 2,932 6.5 -19.9°
Reaches altitude 10° 19:41:00 10° 199° (SSW) 2,026 5.7 -20.3°
Maximum altitude 19:45:26 60° 279° (W) 732 3.6 -21.1°
Drops below altitude 10° 19:49:54 10° 1° (N) 2,029 6.0 -21.9°
Sets 19:52:10 0° 5° (N) 2,938 6.8 -22.2°
